Location: Kelowna
(49.8880°N, 119.4960°W)
Time: 06:51:33
(UTC-07:00)

CAS-4A - Visible Passes

Search period start: 13 April 2024 00:00
Search period end: 23 April 2024 00:00
Orbit: 480 x 498 km, 43.0° (Epoch: 12 April)

Date Brightness Start Highest point End Pass type
(mag) Time Alt. Az. Time Alt. Az. Time Alt. Az.
16 Apr ? 05:18:29 10° SSW 05:21:00 17° SSE 05:23:30 10° ESE visible
17 Apr ? 04:52:36 10° SSW 04:55:05 17° SSE 04:57:35 10° ESE visible
18 Apr ? 04:27:35 14° S 04:29:09 17° SSE 04:31:39 10° ESE visible
19 Apr ? 04:02:39 16° SSE 04:03:10 17° SSE 04:05:40 10° ESE visible
20 Apr ? 03:37:40 16° SSE 03:37:40 16° SSE 03:39:39 10° ESE visible
20 Apr ? 05:12:13 10° SW 05:15:32 28° S 05:18:52 10° ESE visible
21 Apr ? 03:12:39 14° SE 03:12:39 14° SE 03:13:35 10° ESE visible
21 Apr ? 04:46:58 15° SW 04:49:30 28° S 04:52:49 10° ESE visible
22 Apr ? 04:21:55 21° SSW 04:23:25 28° S 04:26:44 10° ESE visible
